Wind_Speed
39 40 39 39 39 39 38 37 37 35 36 37 36 35 32 30 28 27 26 26 26 26 26 26 26 25 25 26 27 27 28 27 29 29 30 29 27 24 23 24 27 28 25 19 14 13 1
38 39 41 41 40 40 40 38 38 37 36 36 36 36 34 32 31 30 30 29 29 28 28 29 28 27 28 28 29 31 32 32 33 34 35 32 29 27 26 28 28 25 24 18 13 10 4
34 37 39 38 41 41 41 40 38 37 37 37 38 36 35 34 32 32 31 30 30 30 30 30 30 30 30 31 32 33 33 34 34 32 31 29 27 24 23 23 26 24 22 17 12 10 12
33 34 36 37 37 40 42 40 39 39 39 39 39 38 37 36 34 33 32 31 31 31 31 31 32 34 33 31 30 30 29 30 31 30 29 27 25 24 24 23 28 24 19 17 12 12 16
36 33 33 35 36 37 37 38 39 38 38 40 43 41 39 38 36 36 35 35 34 33 33 33 32 29 27 26 26 26 25 26 26 25 25 23 21 19 21 23 27 24 20 21 14 15 12
44 38 34 33 33 34 35 36 36 35 33 32 35 38 41 39 37 37 37 36 34 30 28 27 26 24 24 24 23 24 24 23 23 22 20 19 19 19 20 20 19 21 21 19 14 11 12
49 45 40 36 35 33 32 32 32 32 31 30 29 30 32 33 32 31 29 27 26 27 27 25 24 23 24 25 25 26 26 25 24 21 19 18 17 18 20 19 18 20 20 17 10 8 17
55 51 46 42 38 37 35 33 31 30 30 30 30 30 29 28 27 27 25 25 27 26 25 24 24 24 26 24 24 24 25 25 25 24 20 18 13 16 21 19 19 20 20 16 16 14 15
60 56 52 47 43 41 39 37 35 33 31 30 28 29 29 28 27 27 26 26 27 25 26 24 23 24 26 24 25 24 25 25 24 23 22 18 18 16 21 19 19 18 18 15 15 12 18
64 61 58 54 48 45 43 40 37 35 34 34 32 32 30 29 28 27 28 26 27 26 25 25 24 25 27 25 22 23 23 26 27 22 22 19 20 18 20 20 16 15 14 15 10 11 18
67 66 62 59 56 51 47 43 42 40 38 36 35 34 32 31 29 28 28 28 30 28 27 27 25 23 23 24 21 23 22 23 25 24 25 17 20 22 17 19 19 18 16 13 13 18 14
73 68 67 65 62 59 53 49 45 41 39 38 37 37 35 32 30 30 29 31 31 31 31 27 23 23 27 27 27 24 27 27 27 25 25 18 19 24 20 20 19 21 16 16 20 19 14
78 72 69 68 66 64 61 57 53 48 44 40 39 38 36 33 32 30 31 32 34 33 30 24 24 25 28 29 29 31 31 30 27 25 26 19 21 23 24 22 18 19 16 20 23 17 13
84 79 75 72 68 67 66 63 60 56 52 47 45 42 39 37 36 33 33 33 36 31 25 23 28 30 27 27 26 29 30 30 27 26 23 21 24 27 24 25 21 20 19 22 20 12 15
90 87 82 79 75 69 70 67 64 62 59 53 52 48 45 44 41 39 37 38 39 33 29 28 33 34 31 28 29 30 29 29 27 27 26 24 29 27 25 25 24 25 24 20 17 12 12
91 91 88 84 81 76 72 72 69 66 63 60 59 56 53 49 47 45 44 48 46 38 36 35 36 39 42 36 32 32 33 36 34 29 27 26 31 29 31 25 29 30 28 19 20 17 12
91 90 90 88 86 80 76 73 72 71 68 65 63 60 58 56 53 50 50 53 50 43 42 41 40 41 45 44 38 39 38 37 37 34 31 29 32 30 33 28 34 33 29 20 18 21 17
92 91 88 86 87 84 81 78 74 74 72 70 67 65 62 59 57 56 55 53 50 46 46 45 45 45 47 47 45 41 40 41 40 36 34 31 30 31 35 35 33 35 33 24 23 28 18
90 91 90 89 86 87 83 81 79 78 76 74 71 68 66 63 60 59 57 54 55 51 50 49 48 50 48 45 45 43 44 44 40 37 35 34 32 34 35 36 38 38 35 28 29 26 20
86 87 89 90 88 89 87 84 82 80 79 78 74 69 68 66 64 61 62 62 60 53 51 53 56 55 49 46 42 42 44 43 41 40 37 36 34 37 36 40 41 38 34 33 30 32 24
82 84 86 87 87 90 89 87 86 83 81 80 78 74 73 73 71 68 66 65 61 56 54 55 56 56 52 46 40 39 41 43 41 42 41 40 36 38 42 41 40 35 35 36 32 35 26
75 80 80 81 84 85 87 89 90 87 86 83 82 80 80 79 76 73 69 65 63 61 59 56 57 61 58 50 44 41 41 41 39 44 43 44 41 42 43 44 40 32 33 35 37 37 32
70 75 77 77 78 81 83 82 86 89 89 87 84 85 83 81 79 75 70 67 64 64 61 61 59 62 62 56 49 44 42 41 37 39 42 44 44 43 45 50 44 41 38 37 36 38 36
65 68 74 74 76 76 78 79 80 81 85 89 88 87 85 83 81 77 73 69 68 69 68 66 62 62 61 61 59 53 48 44 43 41 42 45 47 47 47 51 46 45 41 37 37 35 37
64 66 69 74 74 74 75 77 77 76 78 80 86 91 85 84 81 76 72 70 69 70 70 67 62 64 65 61 57 52 50 49 45 43 45 46 48 47 46 53 47 46 44 40 36 31 33
63 68 69 71 70 72 72 74 76 74 76 77 75 78 84 83 79 78 71 71 72 75 74 71 66 63 64 64 56 52 52 51 47 49 51 46 46 41 41 48 48 46 45 39 30 26 30
57 60 65 70 72 71 71 72 70 71 71 70 71 71 75 77 75 71 72 75 75 74 75 71 68 69 66 58 53 54 60 55 51 49 45 41 44 39 37 42 45 46 42 35 31 28 31
53 56 57 57 59 61 63 63 62 63 64 65 66 66 67 67 70 73 72 76 77 77 74 69 66 60 59 58 58 56 56 55 42 40 41 42 41 39 35 36 40 44 42 37 37 37 33
48 51 52 52 53 54 55 56 56 56 58 59 59 59 58 58 59 65 70 73 71 67 70 74 69 62 60 60 55 48 45 45 36 35 39 40 35 32 30 32 41 44 40 38 39 39 38
Wind_Direction
226 225 223 224 224 225 224 223 223 224 226 227 230 230 232 234 238 240 240 246 252 254 254 256 259 264 271 278 283 286 288 293 293 294 296 295 296 302 304 303 303 308 306 307 309 328 354
224 225 225 226 225 225 225 225 225 224 224 226 228 232 234 234 238 240 244 247 251 254 257 259 263 269 276 281 283 285 286 288 289 291 293 294 296 298 301 299 303 300 293 299 294 327 244
224 223 225 224 226 226 226 226 227 227 228 229 228 229 232 236 238 240 243 246 251 255 259 263 269 274 277 278 281 283 284 286 286 287 291 294 298 302 296 298 291 286 287 292 296 314 269
226 224 223 224 224 224 227 229 230 232 234 234 234 233 233 235 238 241 244 248 253 257 263 267 269 274 276 278 278 279 282 283 284 286 287 292 295 295 292 281 277 281 288 284 288 287 280
226 225 224 222 222 224 224 227 231 233 236 236 235 234 235 238 241 244 247 250 254 261 266 266 267 270 272 274 275 277 279 279 282 286 287 291 294 291 286 278 276 281 278 280 292 289 285
225 224 224 224 221 222 223 224 227 230 232 233 232 233 234 236 240 243 247 251 256 261 263 262 263 266 268 269 271 273 274 277 280 284 290 299 290 282 281 282 276 273 268 271 284 279 277
222 223 224 224 223 221 221 221 222 225 227 228 227 228 230 233 236 240 242 242 244 243 246 252 257 259 262 265 268 271 274 276 278 282 284 289 289 277 282 277 267 263 264 261 256 254 275
221 221 222 223 222 221 219 220 221 223 223 223 224 225 226 227 227 230 231 233 236 242 247 249 256 254 256 259 262 261 267 271 275 276 277 283 302 275 273 275 267 265 263 257 250 253 254
218 221 220 222 222 221 219 219 220 221 221 220 219 220 222 224 225 227 229 233 240 242 246 244 244 249 255 257 259 264 266 269 271 275 275 275 273 279 273 279 275 281 279 251 257 284 276
219 219 220 220 221 221 220 220 218 219 220 221 220 221 222 223 225 228 230 230 239 238 240 252 249 257 266 270 275 278 282 274 271 272 273 269 269 270 272 277 282 269 271 244 256 270 278
221 221 220 219 219 221 222 222 222 221 222 224 224 222 221 224 222 229 234 233 241 246 245 249 255 262 271 277 277 288 289 291 285 272 270 269 265 261 269 266 272 281 262 229 239 253 259
222 221 221 221 220 219 221 222 223 221 223 225 225 225 225 226 229 230 234 238 241 243 246 247 258 264 272 272 276 275 285 290 294 285 267 259 261 259 257 259 272 268 253 245 261 250 268
221 220 221 221 221 221 222 223 224 224 226 226 224 221 221 226 234 235 238 242 243 244 250 258 262 262 266 272 277 282 285 289 291 288 277 265 257 258 258 254 260 258 260 252 252 262 262
220 221 221 221 222 223 224 225 224 225 227 226 227 226 226 231 236 239 239 242 243 242 250 254 260 267 274 280 283 287 282 280 284 289 279 266 258 254 256 257 261 256 253 255 254 255 257
222 223 223 223 224 224 225 225 226 226 227 227 229 229 229 234 239 243 243 244 247 244 247 258 263 272 276 280 285 284 283 287 285 289 283 270 264 261 249 250 248 249 251 252 256 245 251
222 223 225 225 225 225 225 225 227 227 228 229 232 231 232 235 239 245 248 249 248 248 250 256 264 271 277 279 282 284 282 284 285 284 281 272 275 259 253 246 247 248 249 244 238 230 214
222 224 225 226 226 225 225 225 226 228 229 230 233 235 235 237 240 244 247 250 253 254 257 259 261 266 274 280 283 285 282 281 282 280 282 278 273 262 256 243 239 246 248 249 243 247 224
223 224 225 226 226 226 227 225 226 228 229 231 233 235 236 237 241 244 250 255 256 255 257 258 262 265 269 276 283 282 282 277 278 281 280 281 269 267 248 247 245 242 243 235 229 236 215
223 223 225 225 225 226 227 226 227 228 229 230 232 235 236 240 242 246 250 255 250 251 258 263 266 269 272 272 280 281 278 273 273 274 275 278 271 265 248 246 242 240 241 241 238 243 206
222 223 225 225 226 227 227 227 228 228 228 230 231 234 237 240 242 244 247 250 251 253 258 263 268 273 276 275 273 278 279 271 267 266 269 274 271 264 261 247 244 241 237 235 235 242 223
221 222 224 225 228 228 227 228 228 228 230 231 231 233 234 236 239 242 248 252 255 257 261 266 270 272 274 275 278 275 272 270 269 267 267 268 269 263 257 255 252 244 237 234 229 236 224
220 220 222 224 226 227 229 228 229 229 230 232 232 234 234 237 239 243 249 251 255 257 261 263 266 270 274 277 275 274 275 263 258 261 258 261 262 261 255 256 254 249 242 241 236 234 229
219 219 220 221 224 225 227 228 230 230 230 232 232 235 237 238 241 244 248 251 254 257 258 258 259 266 272 274 274 271 266 266 261 259 259 261 263 260 251 248 248 246 243 235 238 239 238
217 218 217 220 222 224 226 228 228 229 230 232 233 235 237 239 242 245 247 247 250 253 256 256 260 266 270 274 277 270 267 269 266 262 263 265 264 260 250 246 245 244 243 239 234 237 240
218 218 218 219 222 224 226 227 227 228 231 233 233 236 236 239 242 244 247 248 251 253 255 258 261 267 274 276 278 270 268 271 273 268 263 260 258 258 251 245 239 237 235 233 233 232 240
217 217 219 219 221 223 226 227 228 227 230 232 233 233 236 238 240 244 245 247 249 251 255 259 263 268 272 277 271 266 265 269 266 263 261 250 247 250 249 243 236 227 228 229 227 228 236
217 215 217 220 222 223 225 225 226 226 228 229 230 232 234 236 237 240 243 246 248 253 258 262 265 269 272 271 267 264 266 266 265 258 251 248 243 246 244 243 234 221 221 221 217 223 234
214 213 213 214 216 220 222 222 221 221 222 224 226 230 233 235 236 239 242 246 249 252 257 261 263 265 266 265 262 263 263 262 254 246 239 235 240 246 239 240 236 220 216 220 220 208 222
210 207 206 208 210 210 211 212 211 212 214 219 223 227 230 234 236 240 243 248 253 255 254 255 260 263 263 264 260 255 246 247 235 232 234 235 236 230 228 231 224 220 217 221 224 218 213
Height
10900 10905 10909 10913 10918 10922 10926 10930 10934 10937 10941 10945 10948 10951 10954 10957 10960 10963 10965 10968 10969 10970 10971 10972 10973 10974 10974 10973 10971 10970 10968 10968 10967 10966 10966 10966 10966 10967 10966 10964 10961 10959 10957 10958 10957 10958 10960
10892 10897 10901 10905 10910 10915 10920 10924 10927 10931 10935 10939 10943 10946 10950 10952 10955 10958 10961 10963 10965 10966 10966 10967 10967 10968 10969 10968 10967 10965 10964 10963 10961 10961 10960 10960 10961 10962 10962 10958 10957 10954 10951 10954 10955 10958 10957
10885 10889 10893 10897 10902 10907 10913 10917 10921 10925 10929 10933 10937 10940 10944 10947 10950 10953 10956 10958 10960 10961 10961 10962 10962 10962 10963 10963 10961 10960 10959 10957 10956 10956 10956 10955 10956 10958 10956 10956 10949 10948 10948 10950 10952 10956 10952
10878 10881 10885 10890 10894 10899 10904 10910 10914 10918 10922 10926 10930 10934 10938 10941 10945 10948 10950 10952 10953 10955 10956 10956 10956 10956 10957 10957 10956 10954 10954 10952 10950 10951 10951 10952 10952 10953 10951 10950 10945 10946 10948 10948 10950 10951 10948
10870 10874 10878 10883 10887 10891 10896 10901 10907 10911 10914 10918 10922 10927 10931 10935 10939 10942 10944 10946 10947 10950 10951 10950 10951 10952 10952 10952 10951 10949 10949 10947 10947 10947 10947 10947 10949 10949 10946 10945 10942 10944 10944 10943 10947 10947 10946
10863 10867 10871 10876 10880 10885 10889 10894 10899 10904 10907 10911 10915 10919 10924 10928 10932 10935 10937 10941 10943 10945 10945 10945 10946 10947 10947 10946 10946 10945 10945 10944 10943 10942 10943 10943 10944 10944 10943 10942 10942 10939 10938 10939 10944 10944 10943
10853 10859 10864 10868 10874 10878 10883 10887 10892 10897 10901 10905 10909 10913 10917 10921 10925 10928 10932 10935 10937 10937 10938 10940 10941 10942 10942 10942 10942 10941 10940 10939 10939 10939 10940 10940 10940 10939 10938 10938 10938 10935 10935 10937 10939 10939 10939
10842 10849 10855 10861 10866 10872 10877 10882 10886 10891 10895 10899 10904 10908 10912 10916 10920 10923 10927 10929 10930 10932 10934 10936 10936 10937 10936 10938 10938 10936 10935 10935 10935 10936 10936 10937 10937 10935 10933 10934 10934 10933 10932 10934 10934 10934 10933
10830 10838 10846 10852 10858 10864 10869 10875 10880 10885 10890 10894 10899 10903 10907 10911 10915 10919 10922 10924 10924 10928 10928 10930 10931 10931 10931 10933 10933 10933 10931 10930 10930 10931 10932 10933 10932 10932 10929 10930 10931 10931 10932 10933 10932 10930 10928
10818 10826 10834 10843 10850 10856 10861 10867 10873 10878 10883 10888 10893 10898 10902 10907 10911 10914 10916 10919 10918 10921 10924 10924 10927 10927 10927 10927 10930 10927 10927 10925 10926 10928 10927 10929 10927 10928 10927 10926 10927 10927 10929 10930 10927 10927 10926
10804 10814 10822 10830 10839 10847 10853 10859 10866 10871 10876 10881 10886 10891 10896 10900 10905 10908 10910 10912 10912 10915 10918 10919 10922 10923 10922 10922 10924 10924 10922 10921 10921 10924 10922 10925 10923 10921 10923 10921 10919 10922 10922 10924 10926 10923 10923
10789 10800 10810 10819 10827 10836 10844 10850 10857 10863 10868 10873 10879 10884 10889 10893 10898 10901 10903 10905 10906 10908 10910 10914 10918 10919 10916 10917 10917 10919 10918 10917 10916 10915 10916 10920 10918 10915 10918 10918 10918 10917 10917 10919 10920 10920 10921
10774 10785 10796 10806 10815 10824 10832 10840 10847 10854 10860 10866 10870 10876 10881 10887 10889 10894 10896 10897 10899 10902 10906 10912 10912 10911 10911 10912 10913 10912 10913 10912 10912 10910 10908 10913 10912 10910 10911 10914 10914 10912 10914 10915 10914 10915 10919
10758 10770 10781 10792 10802 10811 10819 10828 10837 10844 10850 10857 10861 10867 10874 10878 10881 10886 10888 10889 10889 10898 10902 10905 10903 10903 10906 10907 10908 10906 10904 10906 10907 10906 10904 10906 10906 10906 10908 10908 10909 10908 10910 10910 10913 10914 10916
10742 10754 10765 10777 10788 10798 10807 10815 10825 10833 10839 10848 10850 10859 10864 10869 10873 10876 10880 10879 10881 10893 10897 10897 10896 10896 10899 10902 10902 10901 10900 10900 10902 10901 10899 10898 10894 10898 10901 10904 10904 10903 10904 10907 10909 10911 10913
10724 10737 10750 10761 10773 10783 10793 10802 10811 10819 10827 10835 10840 10848 10854 10859 10864 10867 10870 10868 10872 10884 10889 10891 10891 10889 10888 10895 10896 10895 10895 10893 10893 10894 10893 10893 10888 10890 10892 10897 10896 10895 10898 10902 10903 10904 10906
10706 10720 10733 10745 10757 10768 10778 10788 10798 10805 10814 10821 10829 10836 10843 10849 10853 10857 10858 10857 10865 10877 10880 10884 10885 10884 10879 10882 10888 10889 10888 10886 10885 10887 10887 10887 10884 10885 10883 10887 10886 10888 10892 10897 10897 10899 10902
10689 10703 10715 10727 10740 10751 10762 10773 10783 10791 10800 10807 10816 10824 10832 10837 10842 10845 10847 10851 10860 10867 10867 10870 10875 10876 10875 10875 10877 10880 10880 10878 10877 10880 10879 10881 10880 10878 10876 10878 10880 10882 10884 10888 10890 10892 10897
10671 10684 10696 10710 10722 10734 10745 10757 10767 10776 10786 10793 10803 10812 10819 10826 10832 10836 10840 10842 10843 10854 10859 10861 10862 10862 10867 10872 10870 10870 10869 10868 10872 10872 10871 10871 10873 10872 10873 10872 10873 10874 10878 10883 10887 10890 10894
10652 10665 10678 10691 10703 10717 10728 10740 10750 10761 10770 10779 10791 10801 10808 10814 10817 10823 10825 10826 10832 10844 10849 10850 10849 10851 10857 10861 10863 10863 10858 10859 10862 10862 10863 10863 10865 10864 10866 10864 10866 10870 10873 10875 10880 10884 10890
10635 10647 10661 10673 10685 10699 10710 10722 10733 10745 10755 10765 10776 10786 10791 10796 10802 10808 10812 10819 10826 10835 10839 10839 10837 10835 10840 10845 10851 10852 10851 10850 10853 10852 10853 10853 10856 10857 10852 10855 10858 10864 10867 10869 10872 10876 10881
10618 10631 10643 10657 10668 10680 10692 10703 10716 10729 10739 10750 10760 10768 10774 10783 10790 10798 10805 10810 10815 10822 10826 10828 10824 10820 10825 10831 10837 10840 10839 10838 10841 10837 10839 10839 10843 10844 10844 10844 10851 10855 10858 10862 10865 10867 10871
10602 10614 10628 10640 10652 10663 10674 10687 10699 10711 10722 10734 10744 10750 10759 10771 10777 10788 10794 10800 10803 10805 10812 10810 10814 10808 10810 10816 10821 10826 10828 10825 10829 10829 10828 10827 10829 10831 10833 10832 10838 10845 10848 10851 10857 10859 10863
10587 10599 10613 10624 10635 10647 10658 10670 10683 10694 10705 10717 10728 10734 10745 10756 10763 10775 10782 10787 10789 10788 10791 10794 10800 10800 10803 10802 10807 10810 10814 10815 10816 10818 10817 10816 10815 10816 10819 10820 10828 10832 10839 10845 10846 10851 10856
10573 10585 10597 10609 10620 10632 10643 10654 10666 10678 10688 10699 10711 10719 10730 10742 10749 10759 10767 10771 10774 10772 10774 10779 10787 10789 10789 10794 10797 10799 10800 10803 10806 10806 10804 10801 10799 10801 10805 10806 10815 10823 10827 10833 10837 10842 10846
10556 10570 10581 10593 10605 10616 10627 10638 10651 10663 10674 10684 10695 10703 10714 10725 10736 10746 10753 10755 10756 10755 10759 10767 10776 10779 10779 10781 10784 10785 10785 10787 10791 10789 10788 10787 10785 10788 10791 10794 10803 10809 10817 10825 10831 10834 10836
10541 10552 10564 10578 10590 10601 10611 10623 10636 10648 10659 10669 10680 10688 10698 10710 10723 10733 10739 10738 10741 10744 10747 10755 10763 10766 10766 10768 10770 10770 10766 10771 10775 10775 10776 10775 10778 10781 10782 10786 10793 10798 10810 10818 10824 10826 10827
10528 10539 10551 10563 10575 10587 10598 10610 10623 10635 10646 10655 10667 10677 10686 10698 10709 10716 10721 10720 10727 10733 10739 10742 10743 10750 10750 10752 10753 10755 10753 10751 10759 10763 10766 10767 10768 10773 10774 10778 10787 10792 10800 10808 10810 10815 10818
10518 10528 10540 10552 10563 10575 10587 10600 10612 10624 10635 10645 10656 10666 10676 10686 10695 10700 10703 10707 10715 10724 10721 10719 10729 10733 10735 10736 10737 10740 10741 10741 10748 10752 10756 10760 10762 10764 10766 10771 10776 10781 10791 10799 10801 10805 10810